Volver al catálogo

STARLINK-11619

ActivoComunicacionesVLEO
NORAD 63272·PAYLOAD·🇺🇸 United States

Lanzado Mar 15, 2025 desde Cape Canaveral Space Force Station

Loading…

Próximos Pases (próximas 24 horas)

TLE

ActualizadoSource: CelesTrak SupGP

Época: Sep 15, 2026, 02:40 UTC

1 63272C 25053H   26258.11159722 -.00086049  00000+0 -66796-3 0  2589
2 63272  43.0011  50.4902 0001781 268.2586 329.9004 15.70894171    16

Sigue STARLINK-11619 en tiempo real con AllMySat

Download on the App Store